Location: *
(37.5724°S, 58.0067°E)
Time: 14:56:48
(UTC+00:00)

Lacrosse 5 - Pass Details

Date: 20 January 2021
Orbit: 715 x 724 km, 57.0° (Epoch: 03 March)

Event Time Altitude Azimuth Distance (km) Brightness Sun altitude
Exits shadow 19:53:45 33° 145° (SE) 1,212 3.3 -32.2°
Drops below altitude 10° 19:56:36 10° 140° (SE) 2,240 4.9 -32.2°
Sets 19:59:00 0° 139° (SE) 3,168 5.7 -32.3°
